Regional Weather Roundup
Issued by NWS Cleveland, OH

Home | Current Version | Previous Version | Graphics & Text | Print | Product List | Glossary Off
Versions: 1 2 3 4 5 6 7 8 9 10 11 12 13 14 15 16 17 18 19 20 21 22 23 24 25 26 27 28 29 30 31 32 33 34 35 36 37 38 39 40 41 42 43 44 45 46 47 48 49 50

000
ASUS41 KCLE 160912
RWRCLE
OHIO REGIONAL WEATHER ROUNDUP
NATIONAL WEATHER SERVICE WILMINGTON, OH
400 AM EST SAT DEC 16 2017

NOTE: "FAIR" INDICATES FEW OR NO CLOUDS BELOW 12,000 FEET WITH NO
SIGNIFICANT WEATHER AND/OR OBSTRUCTIONS TO VISIBILITY.

OHZ001>008-015>018-024>027-034-035-043-044-161000-
   NORTHWEST OHIO

CITY           SKY/WX    TMP DP  RH WIND       PRES   REMARKS
DEFIANCE       CLOUDY    32  23  69 SW9       29.95S WCI  24
FINDLAY        CLOUDY    33  23  66 SW14      29.96F WCI  23
TOLEDO EXPRESS CLOUDY    32  24  72 SW15      29.93F WCI  22
TOLEDO EXEC    CLOUDY    31  24  75 SW12      29.95S WCI  22
LIMA           CLOUDY    32  25  75 SW14      29.98S WCI  22
$$

OHZ009>014-019>023-028>033-038-089-161000-
   NORTHEAST OHIO

CITY           SKY/WX    TMP DP  RH WIND       PRES   REMARKS
CLE-HOPKINS    LGT SNOW  31  24  75 SW13      29.99S WCI  21
CLE-LAKEFRONT  FLURRIES  31  23  72 SW14      29.96F WCI  21
CUY CO. ARPT   NOT AVBL
LORAIN-ELYRIA  CLOUDY    30  20  66 SW14      29.97S WCI  19
ASHTABULA      LGT SNOW  26  21  81 SW10      29.94F WCI  16
AKRON-CANTON   LGT SNOW  29  21  72 SW14      29.98S WCI  18
WOOSTER        CLOUDY    29  22  75 SW13      29.99S WCI  19
MANSFIELD      CLOUDY    30  22  72 SW16G23   29.97S WCI  19
YOUNGSTOWN     FLURRIES  28  20  71 SW16G24   29.95S WCI  16
$$

OHZ042-051>053-060>062-070>072-077>081-161000-
  SOUTHWEST OHIO

CITY           SKY/WX    TMP DP  RH WIND       PRES   REMARKS
CINC-COVINGTON CLOUDY    32  25  75 S8        30.08S WCI  25
CINC-LUNKEN    CLOUDY    34  24  67 SW8       30.12S WCI  27
HAMILTON       CLOUDY    35  25  66 SW5       30.09S
DAYTON         CLOUDY    32  25  75 SW14      30.05R WCI  22
WRIGHT-PAT AFB CLOUDY    33  24  70 SW12      30.05R WCI  24
DAYTON GENERAL CLOUDY    33  24  69 SW9       30.05S WCI  25
WILMINGTON     CLOUDY    31  24  75 SW8       30.06S WCI  23
$$

OHZ036-037-039>041-045>050-054>059-063>069-073>076-082>088-161000-
  CENTRAL AND SOUTHEAST OHIO

CITY           SKY/WX    TMP DP  RH WIND       PRES   REMARKS
COLUMBUS       CLOUDY    32  24  72 S7        30.06S WCI  26
OSU AIRPORT    CLOUDY    32  25  75 SW10      30.05R WCI  24
BOLTON FIELD   CLOUDY    32  24  73 SW13      30.06S WCI  22
RICKENBACK AFB CLOUDY    32  24  72 SW10      30.06F WCI  24
NEWARK         CLOUDY    31  23  72 SW10      30.05S WCI  22
MARION         CLOUDY    30  23  75 SW14      30.01  WCI  19
LANCASTER      CLOUDY    31  23  72 S8        30.07S WCI  23
ZANESVILLE     CLOUDY    31  21  66 SW8       30.06S WCI  23
NEW PHILLY     CLOUDY    30  21  69 SW6       30.04S WCI  24
$$




USA.gov is the U.S. government's official web portal to all federal, state and local government web resources and services.